Location: Earls Croome
(52.0667°N, 2.2000°W)
Time: 07:31:23
(UTC+00:00)

COBE Rocket - Pass Details

Date: 17 November 2019
Orbit: 679 x 783 km, 97.1° (Epoch: 12 December)

Event Time Altitude Azimuth Distance (km) Brightness Sun altitude
Rises 05:32:48 0° 188° (S) 3,251 7.3 -18.0°
Reaches altitude 10° 05:35:16 10° 195° (SSW) 2,320 6.4 -17.6°
Maximum altitude 05:40:04 40° 265° (W) 1,127 4.4 -16.9°
Drops below altitude 10° 05:44:49 10° 334° (NNW) 2,287 6.1 -16.1°
Enters shadow 05:45:39 - 338° (NNW) 2,593 6.4 -16.0°
